Probability
0 0 0 0 0 0 0 0 0 0 0 0 0 0 0 0 0 0 0 10 16 10 10 10 10 13 16 16 16 13 16 13 16 16 16 19 16 19 23 29 23 23 16
0 0 0 0 0 0 0 0 0 0 0 0 0 0 0 0 0 0 0 3 10 10 6 13 16 16 16 16 10 13 13 10 10 10 16 16 10 13 10 10 13 6 16
0 0 0 0 0 0 0 0 0 0 0 0 0 0 0 0 0 0 0 3 3 6 10 6 13 13 13 16 13 10 6 10 13 13 10 10 10 13 13 10 6 10 10
0 0 0 0 0 0 0 0 0 0 0 0 0 0 0 0 0 0 0 0 0 0 3 10 6 10 10 10 6 6 6 10 10 10 10 10 10 13 13 13 13 13 13
0 0 0 0 0 0 0 0 0 0 0 0 0 0 0 0 0 0 0 0 0 0 0 3 3 10 10 10 6 6 6 3 6 6 10 10 10 10 6 13 10 13 13
0 0 0 0 0 0 0 0 0 0 0 0 0 0 0 0 0 0 0 0 0 0 0 0 0 3 6 10 6 6 3 3 6 6 10 10 10 10 10 10 10 13 13
0 0 0 0 0 0 0 0 0 0 0 0 0 0 0 0 0 0 0 0 0 0 0 0 0 0 0 3 3 3 3 3 3 6 6 6 6 6 3 6 10 10 6
0 0 0 0 0 0 0 0 0 0 0 0 0 0 0 0 0 0 0 0 0 0 0 0 0 0 0 0 0 3 3 3 3 6 6 6 6 6 6 3 6 6 6
0 0 0 0 0 0 0 0 0 0 0 0 0 0 0 0 0 0 0 0 0 0 0 0 0 0 0 0 0 0 3 3 3 3 3 6 6 6 6 3 6 10 6
0 0 0 0 0 0 0 0 0 0 0 0 0 0 0 0 0 0 0 0 0 0 0 0 0 0 0 0 0 0 0 0 3 3 6 3 10 3 6 6 10 6 3
0 0 0 0 0 0 0 0 0 0 0 0 0 0 0 0 0 0 0 0 0 0 0 0 0 0 0 0 0 0 0 0 0 3 6 3 6 0 3 3 6 6 3
0 0 0 0 0 0 0 0 0 0 0 0 0 0 0 0 0 0 0 0 0 0 0 0 0 0 0 0 0 0 0 0 0 0 3 3 3 0 3 6 6 3 3
0 0 0 0 0 0 0 0 0 0 0 0 0 0 0 0 0 0 0 0 0 0 0 0 0 0 0 0 0 0 0 0 0 0 0 0 0 0 0 3 3 3 3
0 0 0 0 0 0 0 0 0 0 0 0 0 0 0 0 0 0 0 0 0 0 0 0 0 0 0 0 0 0 0 0 0 0 0 0 0 0 0 0 0 3 0
0 0 0 0 0 0 0 0 0 0 0 0 0 0 0 0 0 0 0 0 0 0 0 0 0 0 0 0 0 0 0 0 0 0 0 0 0 0 0 0 0 0 0
0 0 0 0 0 0 0 0 0 0 0 0 0 0 0 0 0 0 0 0 0 0 0 0 0 0 0 0 0 0 0 0 0 0 0 0 0 0 0 0 0 0 0
0 0 0 0 0 0 0 0 0 0 0 0 0 0 0 0 0 0 0 0 0 0 0 0 0 0 0 0 0 0 0 0 0 0 0 0 0 0 0 0 0 0 0
0 0 0 0 0 0 0 0 0 0 0 0 0 0 0 0 0 0 0 0 0 0 0 0 0 0 0 0 0 0 0 0 0 0 0 0 0 0 0 0 0 0 0
0 0 0 0 0 0 0 0 0 0 0 0 0 0 0 0 0 0 0 0 0 0 0 0 0 0 0 0 0 0 0 0 0 0 0 0 0 0 0 0 0 0 0
0 0 0 0 0 0 0 0 0 0 0 0 0 0 0 0 0 0 0 0 0 0 0 0 0 0 0 0 0 0 0 0 0 0 0 0 0 0 0 0 0 0 0
0 0 0 0 0 0 0 0 0 0 0 0 0 0 0 0 0 0 0 0 0 0 0 0 0 0 0 0 0 0 0 0 0 0 0 0 0 0 0 0 0 0 0
0 0 0 0 0 0 0 0 0 0 0 0 0 0 0 0 0 0 0 0 0 0 0 0 0 0 0 0 0 0 0 0 0 0 0 0 0 0 0 0 0 0 0
0 0 0 0 0 0 0 0 0 0 0 0 0 0 0 0 0 0 0 0 0 0 0 0 0 0 0 0 0 0 0 0 0 0 0 0 0 0 0 0 0 0 0
0 0 0 0 0 0 0 0 0 0 0 0 0 0 0 0 0 0 0 0 0 0 0 0 0 0 0 0 0 0 0 0 0 0 0 0 0 0 0 0 0 0 0
0 0 0 0 0 0 0 0 0 0 0 0 0 0 0 0 0 0 0 0 0 0 0 0 0 0 0 0 0 0 0 0 0 0 0 0 0 0 0 0 0 0 0
0 0 0 0 0 0 0 0 0 0 0 0 0 0 0 0 0 0 0 0 0 0 0 0 0 0 0 0 0 0 0 0 0 0 0 0 0 0 0 0 0 0 0
Height
5881 5880 5879 5878 5878 5877 5876 5875 5874 5873 5872 5872 5871 5871 5870 5870 5869 5869 5868 5867 5867 5866 5865 5865 5864 5864 5863 5863 5862 5862 5861 5861 5861 5861 5861 5861 5861 5862 5862 5862 5863 5863 5864
5880 5879 5878 5877 5877 5876 5875 5874 5873 5872 5871 5871 5870 5869 5869 5868 5868 5867 5866 5866 5865 5864 5864 5863 5862 5861 5861 5860 5860 5859 5859 5858 5858 5857 5857 5857 5858 5858 5859 5859 5860 5860 5860
5878 5878 5877 5876 5875 5874 5874 5873 5872 5871 5871 5870 5869 5868 5868 5867 5866 5865 5865 5864 5863 5863 5862 5861 5860 5859 5858 5858 5857 5856 5856 5855 5855 5854 5853 5853 5853 5854 5856 5856 5857 5857 5857
5877 5876 5876 5875 5874 5873 5872 5872 5871 5870 5869 5868 5868 5867 5866 5865 5865 5864 5863 5862 5861 5861 5860 5859 5858 5857 5856 5856 5855 5854 5853 5852 5851 5849 5848 5847 5848 5850 5852 5853 5853 5854 5854
5875 5875 5874 5873 5873 5872 5871 5870 5870 5869 5868 5867 5866 5866 5865 5864 5863 5862 5861 5860 5859 5859 5858 5857 5856 5855 5854 5853 5852 5851 5850 5849 5848 5845 5844 5843 5845 5847 5848 5849 5850 5850 5851
5874 5873 5872 5872 5871 5871 5870 5869 5868 5867 5867 5866 5865 5864 5863 5863 5862 5861 5860 5859 5858 5857 5856 5855 5854 5853 5852 5851 5851 5849 5848 5847 5845 5843 5841 5841 5842 5843 5845 5845 5846 5847 5847
5872 5871 5871 5870 5870 5869 5868 5867 5867 5866 5865 5864 5864 5863 5862 5861 5860 5859 5858 5857 5856 5855 5854 5853 5852 5851 5850 5849 5849 5847 5846 5845 5843 5841 5840 5839 5840 5840 5841 5842 5842 5843 5843
5870 5870 5869 5868 5868 5867 5867 5866 5865 5864 5864 5863 5862 5861 5860 5860 5858 5857 5856 5855 5854 5853 5852 5851 5850 5849 5848 5847 5846 5845 5843 5842 5841 5839 5838 5837 5837 5837 5838 5838 5838 5839 5839
5868 5867 5867 5867 5866 5866 5865 5864 5863 5863 5862 5861 5860 5860 5859 5857 5856 5855 5854 5853 5852 5851 5850 5849 5848 5847 5845 5844 5844 5842 5841 5839 5838 5836 5835 5834 5834 5834 5833 5834 5834 5834 5835
5865 5865 5865 5864 5864 5864 5863 5862 5861 5861 5860 5859 5858 5857 5857 5856 5855 5853 5852 5851 5850 5849 5848 5846 5845 5844 5843 5842 5841 5839 5838 5836 5835 5833 5832 5831 5830 5830 5829 5829 5830 5830 5830
5863 5863 5863 5862 5862 5862 5861 5860 5859 5858 5858 5857 5856 5855 5854 5853 5852 5851 5850 5849 5848 5846 5845 5844 5842 5841 5840 5839 5837 5836 5835 5833 5831 5830 5829 5827 5826 5826 5825 5825 5826 5826 5826
5861 5860 5860 5860 5859 5859 5858 5858 5857 5856 5855 5854 5853 5852 5852 5851 5850 5849 5847 5846 5845 5844 5842 5841 5839 5838 5837 5835 5834 5832 5831 5829 5828 5826 5825 5823 5822 5821 5821 5821 5821 5821 5821
5858 5858 5857 5857 5857 5856 5856 5855 5854 5853 5852 5852 5851 5850 5849 5848 5847 5846 5845 5843 5842 5841 5839 5838 5836 5835 5833 5832 5830 5829 5827 5826 5824 5823 5821 5819 5818 5817 5817 5817 5816 5816 5816
5855 5855 5854 5854 5854 5853 5853 5852 5851 5850 5850 5849 5848 5847 5846 5845 5844 5843 5842 5840 5839 5838 5836 5835 5833 5831 5830 5828 5827 5825 5824 5822 5820 5819 5818 5816 5814 5813 5813 5812 5811 5811 5810
5852 5852 5851 5851 5850 5850 5849 5849 5848 5847 5846 5845 5844 5843 5842 5841 5840 5839 5838 5837 5836 5834 5833 5831 5830 5828 5826 5824 5823 5821 5819 5818 5816 5815 5813 5812 5810 5809 5808 5807 5806 5806 5805
5849 5849 5848 5848 5847 5846 5846 5845 5844 5844 5843 5842 5841 5840 5839 5838 5836 5835 5834 5833 5832 5831 5829 5827 5825 5824 5822 5820 5818 5817 5815 5814 5812 5810 5809 5807 5806 5804 5803 5802 5801 5800 5799
5845 5845 5845 5844 5843 5843 5842 5841 5841 5840 5839 5838 5837 5836 5835 5834 5832 5831 5830 5829 5827 5826 5825 5823 5821 5819 5817 5815 5813 5812 5811 5809 5807 5805 5803 5802 5801 5799 5798 5796 5795 5794 5793
5842 5841 5841 5840 5839 5839 5838 5837 5837 5836 5835 5834 5833 5831 5830 5829 5828 5827 5826 5824 5823 5821 5820 5818 5816 5815 5813 5811 5809 5807 5805 5803 5802 5800 5798 5796 5795 5793 5791 5790 5789 5787 5786
5838 5837 5837 5836 5835 5834 5834 5833 5832 5832 5831 5830 5828 5827 5826 5825 5823 5822 5821 5819 5818 5816 5814 5812 5811 5809 5807 5805 5803 5801 5799 5797 5795 5793 5792 5790 5788 5786 5785 5783 5781 5780 5778
5834 5833 5832 5832 5831 5830 5830 5829 5828 5827 5826 5825 5824 5822 5821 5819 5818 5817 5815 5813 5812 5810 5808 5806 5804 5802 5800 5799 5797 5795 5793 5791 5789 5787 5785 5783 5781 5779 5777 5775 5773 5772 5770
5829 5829 5828 5827 5827 5826 5825 5824 5823 5822 5821 5820 5818 5817 5815 5814 5812 5811 5809 5807 5805 5803 5801 5800 5798 5796 5794 5792 5790 5788 5786 5784 5782 5779 5777 5775 5773 5771 5769 5767 5764 5762 5760
5824 5824 5823 5822 5821 5821 5820 5819 5818 5817 5816 5814 5813 5811 5809 5808 5806 5804 5802 5800 5798 5796 5794 5792 5791 5788 5786 5784 5782 5780 5778 5776 5774 5772 5769 5767 5764 5762 5760 5757 5755 5752 5750
5819 5819 5818 5817 5816 5815 5814 5813 5812 5811 5810 5808 5807 5805 5803 5801 5799 5797 5795 5793 5791 5788 5787 5785 5783 5780 5778 5776 5774 5772 5769 5767 5765 5762 5760 5757 5755 5752 5749 5746 5744 5741 5738
5814 5814 5813 5812 5811 5810 5809 5807 5806 5805 5803 5802 5800 5798 5797 5795 5792 5790 5788 5785 5783 5780 5778 5776 5774 5771 5769 5766 5764 5762 5759 5757 5755 5752 5749 5747 5744 5741 5738 5735 5732 5729 5726
5809 5808 5808 5806 5805 5804 5803 5802 5800 5799 5797 5795 5793 5791 5789 5787 5785 5782 5780 5777 5775 5772 5769 5766 5764 5761 5759 5756 5754 5752 5749 5747 5744 5741 5738 5736 5733 5730 5727 5724 5720 5717 5713
5803 5803 5802 5800 5799 5798 5797 5795 5794 5792 5790 5788 5786 5783 5781 5779 5776 5773 5771 5768 5765 5763 5760 5757 5754 5752 5749 5746 5743 5741 5738 5736 5733 5731 5727 5724 5721 5718 5716 5712 5708 5704 5700
Wind_Speed
6 6 6 6 5 5 5 5 5 5 5 5 5 5 6 6 6 7 7 7 6 7 7 7 7 8 9 9 9 9 10 10 11 12 12 12 13 13 13 13 13 14 14
6 5 6 5 5 5 5 5 5 5 5 5 6 6 6 6 7 7 7 6 7 7 8 8 8 8 8 9 9 9 10 10 11 12 13 13 14 14 13 13 13 14 15
6 6 5 5 5 6 5 6 6 6 6 6 6 6 6 7 7 7 7 7 7 7 7 8 8 8 8 8 9 9 10 10 11 12 13 14 15 15 14 14 14 14 14
6 6 5 6 6 6 5 6 6 6 6 6 7 6 6 6 6 7 7 7 8 7 8 8 8 7 8 8 8 9 10 11 12 12 13 13 14 14 14 14 14 14 14
6 6 5 6 6 6 6 6 6 6 6 6 6 6 6 6 6 7 7 8 9 8 8 8 8 8 8 8 8 9 10 10 11 12 12 12 13 13 13 14 14 14 14
6 6 6 6 6 6 6 6 6 6 6 6 6 6 7 7 7 7 7 7 8 8 8 9 9 9 8 8 8 8 9 10 11 11 11 12 12 13 13 14 14 15 15
7 7 7 6 6 6 6 6 6 6 6 6 7 7 7 7 8 8 8 8 8 8 9 9 9 9 8 8 9 8 9 10 10 10 11 11 12 13 14 14 15 15 15
7 8 8 7 6 7 7 7 7 7 7 7 7 7 8 9 8 8 8 8 9 9 9 9 10 10 10 10 10 10 10 11 11 12 12 12 12 13 14 15 15 16 17
8 8 8 8 7 7 7 7 8 8 8 8 8 8 8 9 9 9 8 8 9 9 10 10 11 10 11 11 11 11 11 11 13 13 13 13 14 14 14 15 16 16 17
9 9 9 9 8 7 7 8 8 8 9 9 9 9 9 9 8 8 9 9 10 10 11 11 11 11 11 12 12 12 12 12 12 13 13 14 14 15 15 15 16 16 17
9 10 10 9 8 8 8 8 8 9 9 10 10 9 9 9 9 10 10 10 11 11 11 11 11 12 12 12 13 12 12 12 13 13 14 15 15 15 16 16 17 17 18
10 10 10 10 10 9 10 10 10 10 10 10 10 10 10 10 10 11 11 11 11 11 12 12 12 12 12 13 13 13 13 13 13 14 14 15 15 15 16 16 17 18 18
10 11 11 11 10 10 10 10 11 11 11 11 11 11 12 12 12 12 12 12 11 12 12 13 13 13 13 13 13 13 14 14 14 14 15 15 15 16 16 17 18 18 18
10 10 10 10 11 11 11 11 12 12 12 13 13 13 13 13 13 13 13 12 12 12 13 14 14 14 14 14 14 14 14 15 15 15 15 16 16 17 17 18 18 19 19
11 11 11 11 11 12 12 12 12 12 12 12 13 13 13 14 14 14 14 13 13 14 14 15 15 15 15 15 15 15 15 16 16 17 17 17 17 17 18 18 19 20 21
12 12 13 12 12 13 13 13 13 14 14 14 14 15 15 15 15 15 15 15 15 15 16 16 16 16 16 16 17 17 17 17 18 19 19 19 19 19 19 20 20 21 21
13 13 13 13 14 14 14 14 14 14 15 15 16 16 16 16 16 16 16 17 17 17 17 17 17 18 18 18 19 19 19 20 20 21 21 21 21 21 21 21 22 22 23
14 14 14 14 14 14 14 15 15 15 16 16 16 17 17 17 17 17 17 18 18 18 18 18 19 19 19 20 20 20 21 21 21 22 22 22 23 23 23 24 24 25 25
14 14 14 15 15 15 15 16 16 16 17 17 17 18 18 18 18 18 19 19 19 19 20 20 21 21 21 21 21 22 22 22 23 23 24 24 25 26 26 27 27 28 28
16 16 16 16 16 17 17 17 17 18 18 18 18 18 19 19 19 20 21 21 22 22 22 22 22 23 23 23 23 23 24 24 25 26 26 26 27 27 28 29 30 31 31
16 17 17 17 17 18 18 18 19 19 19 19 20 20 20 21 21 21 22 23 23 24 24 24 24 24 25 25 25 26 26 27 27 28 28 29 29 29 31 32 32 33 34
17 17 18 18 18 18 18 18 19 20 20 21 21 21 21 22 22 23 24 24 24 25 25 25 26 26 26 27 27 28 28 29 29 30 31 32 33 33 33 34 35 35 36
17 17 17 17 17 18 18 19 20 20 20 21 21 22 22 23 24 24 25 25 26 26 26 27 27 27 28 29 30 30 31 31 31 32 32 33 34 35 35 36 37 38 39
17 18 18 19 19 19 19 20 20 21 21 22 22 23 24 25 25 26 27 27 27 28 29 29 29 30 31 31 32 32 33 33 33 34 35 35 36 36 37 38 39 40 41
18 19 19 19 19 20 20 21 21 22 23 23 24 26 26 26 27 28 28 28 29 30 30 31 31 31 31 32 33 34 34 35 35 35 36 37 37 38 38 39 40 41 42
19 20 20 20 21 21 21 22 23 23 24 25 26 27 28 28 29 29 29 30 31 31 31 31 31 32 33 34 34 35 35 36 36 36 37 38 39 39 39 39 40 42 43
Wind_Direction
294 297 300 304 308 309 310 312 302 295 292 289 282 281 282 280 279 275 275 282 281 280 279 283 283 283 277 271 269 266 264 261 257 255 254 253 252 252 252 254 254 253 254
290 293 295 299 305 306 306 307 301 296 292 281 276 278 283 285 280 277 279 281 283 284 282 283 283 284 279 273 273 268 266 264 263 259 257 255 253 253 253 254 254 253 253
288 288 295 301 306 305 306 305 300 293 287 281 277 277 282 285 280 284 288 287 284 286 289 287 286 286 284 281 276 270 267 265 265 265 263 258 255 253 253 254 256 256 257
280 284 290 298 305 307 307 303 300 296 292 290 286 283 287 288 287 288 288 287 286 286 288 288 290 290 286 283 279 273 270 267 269 270 267 261 257 255 253 254 256 257 259
274 279 285 295 303 307 309 305 303 300 299 301 298 292 294 296 293 292 288 287 285 284 287 289 290 291 291 288 281 278 274 273 274 273 269 264 259 258 256 258 257 258 259
272 279 284 290 297 301 304 306 305 302 302 302 302 302 304 305 303 301 297 294 289 288 291 290 291 292 291 288 286 284 282 280 276 274 270 266 262 259 259 260 260 261 260
272 278 286 291 292 297 303 301 298 302 305 304 303 304 305 307 308 306 302 300 297 295 295 293 293 294 292 291 291 291 291 289 285 279 273 270 267 262 261 262 261 259 258
274 275 280 285 287 292 298 300 298 300 304 302 302 305 309 310 311 309 304 301 298 295 294 294 295 295 292 290 289 290 291 292 289 282 277 273 271 268 263 262 262 259 257
271 272 278 282 285 288 293 299 300 298 298 298 300 303 306 310 313 311 311 305 301 295 292 290 290 292 293 293 292 293 291 291 290 287 284 279 273 269 267 265 263 262 260
272 270 274 279 281 284 291 298 300 298 298 297 299 299 300 304 307 305 304 303 300 296 294 290 290 290 292 292 292 293 292 290 289 287 284 281 278 272 266 264 263 263 263
272 271 272 277 279 281 285 292 298 298 297 295 296 296 295 297 299 300 300 299 297 295 296 294 293 290 289 288 290 291 292 292 290 287 284 281 279 275 269 267 266 265 264
270 272 273 274 276 277 282 288 291 292 291 291 293 295 294 295 297 298 299 300 298 295 296 297 296 293 290 288 289 290 290 291 290 290 287 284 280 278 273 270 269 267 266
272 274 274 274 276 278 282 285 287 288 287 289 291 293 295 294 294 297 298 298 297 296 296 297 296 292 291 289 288 289 290 290 290 291 291 287 283 279 276 272 271 270 268
274 275 277 277 278 279 280 282 283 285 285 287 288 289 292 292 292 295 296 296 295 294 294 295 295 293 290 290 290 289 288 288 289 291 292 290 286 283 280 278 275 272 270
273 275 277 277 279 279 279 282 285 286 286 287 288 289 290 292 292 293 293 293 292 293 293 294 294 294 291 290 291 290 289 288 288 290 292 292 288 287 283 280 277 275 273
273 273 274 275 277 278 278 280 282 286 288 287 288 289 290 291 292 292 292 291 291 292 293 293 294 294 294 293 293 293 291 290 290 290 290 291 289 288 286 284 282 280 278
269 272 274 275 276 278 279 281 282 285 287 288 288 289 290 290 291 291 291 291 291 291 291 292 293 293 293 293 293 292 290 290 290 290 291 291 290 289 287 286 284 282 281
270 272 273 274 275 277 280 282 283 285 286 287 288 290 291 292 290 290 290 290 291 291 289 289 290 291 292 292 293 292 291 291 291 290 289 289 288 288 286 285 284 283 283
271 273 273 273 275 277 279 281 283 285 285 286 288 290 292 291 290 290 291 290 291 290 289 289 289 289 290 291 292 292 292 292 291 290 289 289 288 288 287 286 285 284 284
273 274 275 276 275 276 278 281 282 283 285 287 288 290 291 291 291 291 291 290 290 289 289 289 289 289 289 289 289 290 291 291 291 291 290 289 289 288 288 287 286 285 284
275 275 275 276 276 277 278 282 283 284 286 287 288 289 289 289 289 290 290 290 289 289 288 288 288 288 289 288 289 289 289 290 291 291 290 289 289 288 288 288 287 287 286
277 277 277 278 279 278 280 282 284 285 286 287 288 289 289 290 290 291 292 291 290 289 288 287 288 288 288 289 288 289 289 290 290 289 289 289 288 288 288 288 287 287 286
279 280 279 278 279 280 281 283 284 285 286 287 288 288 289 290 290 291 291 290 289 289 288 287 287 287 289 289 289 289 289 290 289 289 289 290 289 289 289 289 289 288 287
278 279 279 279 280 282 282 285 286 287 288 288 289 289 290 290 290 290 290 290 290 290 289 289 288 288 289 289 289 289 289 290 290 290 291 291 291 291 291 291 290 289 289
279 279 280 281 282 284 285 286 287 288 289 289 290 291 291 291 291 291 290 290 290 290 290 291 290 290 290 290 290 290 290 290 291 292 292 291 291 291 291 291 290 290 290
279 279 281 282 283 284 285 287 288 289 289 290 291 292 292 291 292 292 291 291 291 291 291 291 290 290 291 291 291 291 290 290 290 291 292 292 291 291 291 291 291 291 291